Location: Hac?musa Deresi
(39.1694°N, 32.2508°E)
Time: 15:34:58
(UTC+00:00)

SJ 16-02 - Pass Details

Date: 22 April 2026
Orbit: 582 x 592 km, 75.0° (Epoch: 11 May)

Event Time Altitude Azimuth Distance (km) Brightness Sun altitude
Rises 20:00:41 0° 348° (NNW) 2,817 5.7 -32.5°
Reaches altitude 10° 20:02:59 10° 355° (N) 1,911 4.6 -32.8°
Enters shadow 20:04:18 19° 3° (N) 1,426 3.7 -32.9°
